Chicago Lansing, IN

11:45 AM CDT on March 24, 2017 (GMT -0500)
Lansing Municipal

Weather History for KIGQ - February, 2014

Change the Weather History Date:

Thursday, February 6, 2014

  Actual Average (KGYY) Record (KGYY)
Temperature  
Mean Temperature 2 °F -  
Max Temperature 7 °F 30 °F 57 °F (2017)
Min Temperature -2 °F 13 °F -8 °F (1977)
Degree Days  
Heating Degree Days 62    
Moisture  
Dew Point -5 °F    
Average Humidity 73    
Maximum Humidity 88    
Minimum Humidity 61    
Precipitation  
Precipitation 0.00 in - - ()
Sea Level Pressure  
Sea Level Pressure 30.41 in    
Wind  
Wind Speed 9 mph (WSW)    
Max Wind Speed 17 mph    
Max Gust Speed 24 mph    
Visibility 10 miles    
Events Snow    
Averages and records for this station are not official NWS values.
T = Trace of Precipitation, MM = Missing Value Source: NWS Daily Summary

Daily Weather History Graph

Daily Weather History Graph

Search for Another Location

Airport or City:

Trip Planner

Search our weather history database for the weather conditions in past years. The results will help you decide how hot, cold, wet, or windy it might be!

Date:

Astronomy

Feb. 06, 2014 Rise Set
Actual Time 6:56 AM CST 5:12 PM CST
Civil Twilight 6:27 AM CST 5:41 PM CST
Nautical Twilight 5:54 AM CST 6:14 PM CST
Astronomical Twilight 5:22 AM CST 6:46 PM CST
Moon 10:43 AM CST (2/6) 12:11 AM CST (2/6)
Length of Visible Light 11h 13m
Length of Day
10h 15m
Waxing Crescent, 49% of the Moon is Illuminated
Feb 6
Waxing Crescent
Feb 6
First Quarter
Feb 14
Full
Feb 22
Last Quarter
Mar 1
New

Hourly Weather History & Observations

Time (CST) Temp. Windchill Dew Point Humidity Pressure Visibility Wind Dir Wind Speed Gust Speed Precip Events Conditions
12:15 AM 7.3 °F -2.8 °F 3.9 °F 86% 30.43 in 10.0 mi West 5.8 mph - N/A   Scattered Clouds
12:35 AM 7.0 °F -3.3 °F 3.7 °F 87% 30.43 in 10.0 mi West 5.8 mph - N/A   Scattered Clouds
12:55 AM 5.7 °F -4.8 °F 2.8 °F 88% 30.42 in 10.0 mi West 5.8 mph - N/A   Clear
1:15 AM 5.7 °F -4.8 °F 2.3 °F 86% 30.42 in 10.0 mi West 5.8 mph - N/A Snow Light Snow
1:35 AM 4.8 °F -4.3 °F 1.6 °F 86% 30.41 in 10.0 mi WSW 4.6 mph - N/A   Clear
1:55 AM 5.4 °F -5.2 °F 2.1 °F 86% 30.42 in 10.0 mi WSW 5.8 mph - N/A   Clear
2:15 AM 4.6 °F -6.0 °F 1.0 °F 85% 30.41 in 10.0 mi West 5.8 mph - N/A   Clear
2:35 AM 3.7 °F -8.4 °F -0.4 °F 83% 30.41 in 10.0 mi West 6.9 mph - N/A   Clear
2:55 AM 4.3 °F -10.0 °F 0.5 °F 84% 30.41 in 10.0 mi West 9.2 mph - N/A   Mostly Cloudy
3:15 AM 5.5 °F -7.4 °F 1.4 °F 83% 30.41 in 10.0 mi West 8.1 mph - N/A   Overcast
3:35 AM 5.7 °F -9.1 °F 1.4 °F 82% 30.41 in 10.0 mi West 10.4 mph - N/A Snow Light Snow
3:55 AM 5.7 °F -8.2 °F 1.4 °F 82% 30.41 in 7.0 mi West 9.2 mph - N/A Snow Light Snow
4:15 AM 5.5 °F -9.3 °F 1.2 °F 82% 30.41 in 7.0 mi West 10.4 mph - N/A Snow Light Snow
4:35 AM 5.0 °F -10.8 °F 0.5 °F 82% 30.41 in 10.0 mi West 11.5 mph - N/A Snow Light Snow
4:55 AM 4.5 °F -9.8 °F -0.4 °F 80% 30.41 in 10.0 mi WSW 9.2 mph - N/A Snow Light Snow
5:15 AM 2.7 °F -10.9 °F -2.4 °F 79% 30.41 in 10.0 mi West 8.1 mph - N/A   Scattered Clouds
5:35 AM 1.9 °F -10.6 °F -3.1 °F 79% 30.41 in 10.0 mi West 6.9 mph - N/A   Clear
5:55 AM 0.9 °F -15.1 °F -4.0 °F 80% 30.41 in 10.0 mi West 10.4 mph - N/A   Clear
6:15 AM -0.4 °F -13.4 °F -4.9 °F 81% 30.40 in 10.0 mi WSW 6.9 mph - N/A   Clear
6:35 AM -0.6 °F -16.0 °F -5.3 °F 81% 30.40 in 10.0 mi WSW 9.2 mph - N/A   Clear
6:55 AM -1.5 °F -17.1 °F -6.2 °F 80% 30.41 in 10.0 mi WSW 9.2 mph - N/A   Clear
7:15 AM -2.2 °F -18.0 °F -6.9 °F 80% 30.42 in 10.0 mi WSW 9.2 mph - N/A   Clear
7:35 AM -2.6 °F -18.4 °F -7.6 °F 79% 30.43 in 10.0 mi WSW 9.2 mph - N/A   Clear
7:55 AM -2.9 °F -18.8 °F -7.8 °F 80% 30.43 in 10.0 mi West 9.2 mph - N/A   Clear
8:15 AM -2.7 °F -19.6 °F -8.3 °F 77% 30.43 in 10.0 mi West 10.4 mph - N/A   Clear
8:35 AM -2.2 °F -18.9 °F -8.1 °F 76% 30.43 in 10.0 mi West 10.4 mph - N/A   Clear
8:55 AM -1.3 °F -16.8 °F -7.6 °F 75% 30.43 in 7.0 mi West 9.2 mph - N/A   Clear
9:15 AM -0.6 °F -16.0 °F -7.6 °F 72% 30.44 in 10.0 mi WSW 9.2 mph - N/A   Clear
9:35 AM -0.0 °F -17.1 °F -7.6 °F 70% 30.44 in 10.0 mi West 11.5 mph - N/A   Clear
9:55 AM 0.5 °F -15.6 °F -7.6 °F 69% 30.45 in 10.0 mi West 10.4 mph - N/A   Clear
10:15 AM 1.4 °F -15.3 °F -6.9 °F 68% 30.45 in 10.0 mi West 11.5 mph - N/A   Clear
10:35 AM 2.3 °F -13.4 °F -6.3 °F 67% 30.45 in 10.0 mi West 10.4 mph - N/A   Clear
10:55 AM 2.8 °F -12.7 °F -5.8 °F 67% 30.45 in 10.0 mi SW 10.4 mph - N/A   Clear
11:15 AM 3.0 °F -13.3 °F -5.8 °F 67% 30.45 in 10.0 mi WSW 11.5 mph - N/A   Clear
11:35 AM 3.0 °F -14.1 °F -6.0 °F 66% 30.45 in 10.0 mi WSW 12.7 mph - N/A   Clear
11:55 AM 3.2 °F -13.1 °F -6.0 °F 66% 30.44 in 5.0 mi WSW 11.5 mph - N/A Snow Light Snow
12:15 PM 3.7 °F -13.2 °F -5.3 °F 66% 30.43 in 10.0 mi West 12.7 mph - N/A   Clear
12:35 PM 4.8 °F -10.2 °F -5.4 °F 63% 30.42 in 7.0 mi West 10.4 mph 24.2 mph N/A   Clear
12:55 PM 4.3 °F -15.1 °F -5.8 °F 63% 30.41 in 10.0 mi West 17.3 mph - N/A   Clear
1:15 PM 4.8 °F -12.5 °F -6.2 °F 61% 30.40 in 10.0 mi West 13.8 mph 20.7 mph N/A   Clear
1:35 PM 5.0 °F -14.2 °F -6.0 °F 61% 30.41 in 10.0 mi West 17.3 mph - N/A   Clear
1:55 PM 5.0 °F -10.8 °F -5.1 °F 63% 30.40 in 10.0 mi WSW 11.5 mph - N/A   Clear
2:15 PM 4.1 °F -14.1 °F -5.6 °F 64% 30.40 in 10.0 mi WSW 15.0 mph - N/A   Clear
2:35 PM 4.1 °F -12.0 °F -6.0 °F 63% 30.40 in 10.0 mi WSW 11.5 mph - N/A   Clear
2:55 PM 3.9 °F -13.7 °F -6.0 °F 64% 30.39 in 10.0 mi SW 13.8 mph - N/A   Clear
3:15 PM 3.6 °F -13.4 °F -6.3 °F 64% 30.40 in 10.0 mi WSW 12.7 mph - N/A   Clear
3:35 PM 3.2 °F -13.9 °F -6.5 °F 64% 30.40 in 10.0 mi WSW 12.7 mph - N/A   Clear
3:55 PM 2.7 °F -14.5 °F -6.9 °F 64% 30.39 in 10.0 mi WSW 12.7 mph - N/A   Clear
4:15 PM 2.3 °F -14.2 °F -7.2 °F 64% 30.39 in 10.0 mi WSW 11.5 mph - N/A   Clear
4:35 PM 2.1 °F -12.6 °F -7.4 °F 64% 30.39 in 10.0 mi WSW 9.2 mph - N/A   Clear
4:55 PM 1.8 °F -13.1 °F -7.8 °F 64% 30.39 in 10.0 mi WSW 9.2 mph - N/A   Clear
5:15 PM 1.2 °F -15.6 °F -8.0 °F 65% 30.39 in 10.0 mi WSW 11.5 mph - N/A   Clear
5:35 PM 0.9 °F -16.0 °F -8.1 °F 66% 30.40 in 10.0 mi WSW 11.5 mph - N/A   Clear
5:55 PM 0.9 °F -17.6 °F -8.3 °F 65% 30.41 in 10.0 mi WSW 13.8 mph - N/A   Clear
6:15 PM 0.5 °F -16.5 °F -8.1 °F 67% 30.41 in 10.0 mi WSW 11.5 mph - N/A   Clear
6:35 PM 0.1 °F -15.1 °F -7.8 °F 69% 30.41 in 10.0 mi WSW 9.2 mph - N/A   Clear
6:55 PM 0.1 °F -16.9 °F -7.8 °F 69% 30.41 in 10.0 mi WSW 11.5 mph - N/A   Clear
7:15 PM 0.1 °F -16.9 °F -8.0 °F 69% 30.41 in 10.0 mi WSW 11.5 mph - N/A   Clear
7:35 PM -0.2 °F -15.5 °F -8.5 °F 68% 30.41 in 10.0 mi WSW 9.2 mph - N/A   Clear
7:55 PM -2.2 °F -16.8 °F -9.9 °F 70% 30.41 in 10.0 mi SW 8.1 mph - N/A   Clear
8:15 PM -2.2 °F -16.8 °F -9.0 °F 73% 30.42 in 10.0 mi WSW 8.1 mph - N/A   Clear
8:35 PM -1.1 °F -18.5 °F -7.6 °F 74% 30.41 in 10.0 mi WSW 11.5 mph - N/A   Clear
8:55 PM -1.3 °F -17.8 °F -8.0 °F 73% 30.41 in 10.0 mi WSW 10.4 mph - N/A   Clear
9:15 PM -0.8 °F -15.1 °F -8.0 °F 72% 30.42 in 10.0 mi WSW 8.1 mph - N/A   Clear
9:35 PM -1.3 °F -17.8 °F -8.5 °F 72% 30.41 in 10.0 mi WSW 10.4 mph - N/A   Clear
9:55 PM -1.7 °F -16.2 °F -8.7 °F 72% 30.41 in 10.0 mi WSW 8.1 mph - N/A   Clear
10:15 PM -1.7 °F -18.3 °F -8.7 °F 72% 30.41 in 10.0 mi WSW 10.4 mph - N/A   Clear
10:35 PM -1.7 °F -18.3 °F -8.5 °F 73% 30.40 in 10.0 mi WSW 10.4 mph - N/A   Clear
10:55 PM -1.3 °F -17.8 °F -8.3 °F 72% 30.40 in 10.0 mi WSW 10.4 mph - N/A   Mostly Cloudy
11:15 PM -1.3 °F -18.7 °F -8.3 °F 72% 30.41 in 10.0 mi WSW 11.5 mph - N/A   Overcast
11:35 PM -1.8 °F -19.4 °F -8.7 °F 73% 30.41 in 10.0 mi West 11.5 mph - N/A   Scattered Clouds
11:55 PM -2.2 °F -18.0 °F -9.4 °F 71% 30.41 in 10.0 mi West 9.2 mph - N/A   Clear